SCP
0 0 0 0 0 0 0 0 0 0 0 0 0 0 0 0 0 0 0 0 0 0 0 0 0 0 0 0 0 0 0 0 0 0 0 0 0 0 0 0 0 0 0 0
0 0 0 0 0 0 0 0 0 0 0 0 0 0 0 0 0 0 0 0 0 0 0 0 0 0 0 0 0 0 0 0 0 0 0 0 0 0 0 0 0 0 0 0
0 0 0 0 0 0 0 0 0 0 0 0 0 0 0 0 0 0 0 0 0 0 0 0 0 0 0 0 0 0 0 0 0 0 0 0 0 0 0 0 0 0 0 0
0 0 0 0 0 0 0 0 0 0 0 0 0 0 0 0 0 0 0 0 0 0 0 0 0 0 0 0 0 0 0 0 0 0 0 0 0 0 0 0 0 0 0 0
0 0 0 0 0 0 0 0 0 0 0 0 0 0 0 0 0 0 0 0 0 0 0 0 0 0 0 0 0 0 0 0 0 0 0 0 0 0 0 0 0 0 0 0
0 0 0 0 0 0 0 0 0 0 0 0 0 0 0 0 0 0 0 0 0 0 0 0 0 0 0 0 0 0 0 0 0 0 0 0 0 0 0 0 0 0 0 0
0 0 0 0 0 0 0 0 0 0 0 0 0 0 0 0 0 0 0 0 0 0 0 0 0 0 0 0 0 0 0 0 0 0 0 0 0 0 0 0 0 0 0 0
0 0 0 0 0 0 0 0 0 0 0 0 0 0 0 0 0 0 0 0 0 0 0 0 0 0 0 0 0 0 0 0 0 0 0 0 0 0 0 0 0 0 0 0
0 0 0 0 0 0 0 0 0 0 0 0 0 0 0 0 0 0 0 0 0 0 0 0 0 0 0 0 0 1 1 0 0 0 0 0 0 0 0 0 0 0 0 0
0 0 0 0 0 0 0 0 0 0 0 0 0 0 0 0 0 0 0 0 0 0 0 0 0 1 1 0 0 1 1 1 0 0 0 0 0 0 0 0 0 0 0 0
0 0 0 0 0 0 0 0 0 0 0 0 0 0 0 0 0 0 0 0 0 0 0 0 1 1 1 0 0 0 0 0 1 1 0 0 1 0 0 0 1 1 1 1
0 0 0 0 0 0 0 0 0 0 0 0 0 0 0 0 0 0 0 0 0 0 0 1 1 1 1 1 0 0 0 0 1 1 1 1 1 1 0 0 1 1 1 1
0 0 0 0 0 0 0 0 0 0 0 0 0 0 0 0 0 0 0 0 0 1 1 1 1 1 1 1 1 1 1 1 1 1 1 1 1 1 1 1 1 1 1 1
0 0 0 0 0 0 0 0 0 0 0 0 0 0 0 0 0 0 0 0 1 1 1 1 1 1 1 1 1 1 1 1 1 1 1 1 1 1 1 1 1 1 1 1
0 0 0 0 0 0 0 0 0 0 0 0 0 0 0 0 0 0 0 1 1 1 1 1 1 1 1 1 1 1 1 1 1 1 1 1 1 1 1 1 1 1 1 1
0 0 0 0 0 0 0 0 0 0 0 0 0 0 0 0 0 0 1 1 1 1 1 1 1 1 1 1 1 1 1 1 1 1 1 1 1 1 1 1 1 1 1 1
0 0 0 0 0 0 0 0 0 0 0 0 0 0 0 0 0 1 1 1 1 1 1 1 1 1 1 1 1 1 1 1 1 1 1 1 1 1 1 1 1 1 1 1
0 0 0 0 0 0 0 0 0 0 0 0 0 0 0 0 0 1 1 1 1 1 1 1 1 1 1 1 1 1 1 1 1 1 1 1 1 1 1 1 1 1 1 1
0 0 0 0 0 0 0 0 0 0 0 0 0 0 0 0 1 1 1 1 1 1 1 1 1 1 1 1 1 1 1 1 1 1 1 1 1 1 1 1 1 1 1 1
0 0 0 0 0 0 0 0 0 0 0 0 0 0 0 1 1 1 1 1 1 1 1 1 1 1 1 1 1 1 1 1 1 1 1 1 1 1 1 1 1 1 1 1
0 0 0 0 0 0 0 0 0 0 0 0 0 0 1 1 1 1 1 1 1 1 1 1 1 1 1 1 1 1 1 1 1 1 1 1 1 1 1 1 1 1 1 1
0 0 0 0 0 0 0 0 0 0 0 0 0 0 1 1 1 1 1 1 1 1 1 1 1 1 1 1 1 1 1 1 1 1 1 1 1 1 1 1 1 1 1 1
0 0 0 0 0 0 0 0 0 0 0 0 0 0 1 1 1 1 1 1 1 1 1 1 1 1 1 1 1 1 1 1 1 1 1 1 1 1 1 1 1 1 1 1
0 0 0 0 0 0 0 0 0 0 0 0 0 1 1 1 1 1 1 1 1 1 1 1 1 1 1 1 1 1 1 1 1 1 1 1 1 1 1 1 1 1 1 1
0 0 0 0 0 0 0 0 0 0 0 0 0 1 1 1 1 1 1 1 1 1 1 1 1 1 1 1 1 1 1 1 1 1 1 1 1 1 1 1 1 1 0 0
0 0 0 0 0 0 0 0 0 0 0 0 0 1 1 1 1 1 1 1 1 1 1 1 1 1 1 1 1 1 1 1 1 1 1 1 1 1 1 1 1 0 0 0
Wind_Speed
6 8 7 4 4 4 4 4 3 0 1 4 3 2 3 6 7 7 7 7 8 8 9 9 8 7 7 6 6 6 5 5 4 3 3 3 2 2 2 2 2 3 3 3
8 8 4 3 3 5 6 6 4 2 1 4 4 3 2 5 6 6 8 8 9 9 9 10 9 9 8 7 7 6 6 5 4 3 2 2 2 2 2 2 1 2 2 3
10 2 3 6 6 7 7 6 5 4 3 6 6 5 5 6 6 7 8 8 9 10 10 10 10 9 9 8 8 6 6 5 4 4 3 3 2 2 2 2 1 2 2 2
8 5 5 7 7 8 6 3 5 6 8 4 5 5 4 6 7 7 8 9 9 10 9 9 10 10 9 9 7 7 6 6 5 5 4 4 3 2 2 1 1 1 1 2
7 6 7 7 5 6 4 2 5 7 8 8 6 8 2 6 6 7 8 8 9 10 10 10 10 10 9 8 7 7 7 6 5 5 5 4 4 2 2 1 1 1 1 1
6 5 6 5 4 4 3 5 6 8 9 9 5 8 4 3 4 4 7 8 8 9 10 10 9 9 9 8 8 8 7 7 6 6 5 5 4 3 2 2 1 2 1 1
10 9 7 6 7 7 8 9 7 8 7 5 2 7 3 0 2 3 4 6 8 9 8 9 10 9 9 9 9 8 8 7 7 6 6 6 5 4 3 3 2 2 2 1
12 11 9 8 8 7 8 10 8 7 6 4 5 6 1 1 1 2 3 5 7 8 8 8 9 9 8 9 9 8 8 8 7 6 5 4 5 4 3 3 3 2 2 2
9 8 7 6 6 8 8 9 8 10 10 9 5 4 4 3 4 4 5 5 6 7 7 8 8 8 8 8 8 8 8 8 7 6 6 5 4 4 3 3 3 3 2 2
7 8 8 6 7 6 8 7 7 9 8 9 7 7 4 4 4 4 4 4 4 5 6 6 6 7 7 8 8 7 8 7 7 7 6 5 5 5 4 3 2 2 2 2
9 9 8 9 10 9 8 9 8 8 9 10 8 3 2 1 2 3 4 3 3 5 5 5 5 6 7 7 7 7 7 7 6 6 6 5 5 5 4 4 3 3 2 2
8 9 8 9 6 5 8 9 10 9 8 9 10 3 4 1 1 1 2 2 2 3 4 5 5 5 6 7 7 7 7 7 7 6 6 6 5 4 4 4 3 3 3 3
6 8 9 10 10 8 8 9 10 10 9 10 11 4 5 3 1 1 1 1 2 2 3 4 5 5 5 6 6 6 6 6 6 6 6 5 5 5 4 4 3 3 3 3
6 9 11 10 5 6 9 10 10 12 11 10 11 9 4 2 2 2 1 2 2 3 3 3 4 4 4 5 6 6 6 5 6 6 5 5 5 4 4 4 4 3 3 4
7 10 10 11 8 8 11 11 11 12 12 12 10 9 6 3 3 2 2 3 4 4 4 4 4 4 4 5 6 5 5 5 5 5 5 5 4 4 4 4 4 4 4 4
6 8 9 11 10 10 11 11 12 13 12 12 11 9 4 2 2 2 3 4 4 4 4 4 4 4 4 5 6 5 5 5 5 5 5 4 4 4 3 3 3 3 4 4
6 7 9 10 9 10 13 11 12 11 10 11 11 6 2 3 2 3 3 4 4 4 4 5 4 4 4 4 5 6 5 5 5 5 5 4 4 4 3 3 3 3 4 3
7 8 8 9 8 14 4 1 6 8 8 7 6 4 4 3 2 3 3 3 3 4 4 4 4 4 3 3 4 5 5 5 5 5 5 4 4 4 4 3 3 3 3 3
8 8 8 9 12 13 7 3 4 7 8 5 5 4 3 1 3 3 1 1 2 2 2 3 3 3 3 3 3 4 5 5 5 5 5 4 5 5 4 3 3 3 3 3
7 8 9 10 12 12 3 3 1 6 8 1 3 3 3 3 6 0 2 1 2 1 1 2 2 2 2 2 3 5 5 5 5 4 5 4 5 4 4 4 3 3 3 3
8 8 11 12 12 8 3 1 4 9 1 3 3 3 4 4 4 3 2 2 1 1 1 2 2 2 2 2 3 4 4 4 4 4 4 4 5 5 4 4 4 3 3 3
6 6 8 8 11 5 4 1 3 4 4 4 4 4 3 3 2 2 1 1 1 1 1 2 2 2 2 3 3 4 4 4 3 3 4 4 4 4 4 4 4 4 4 4
5 4 4 4 2 3 2 3 3 4 4 4 4 3 3 2 3 2 1 1 1 1 1 2 2 2 2 2 3 3 3 3 3 3 3 3 4 4 4 4 5 5 5 4
3 2 4 5 3 3 4 3 4 5 5 5 4 3 3 3 3 2 2 1 1 1 1 2 2 2 2 2 2 2 2 3 3 3 3 3 4 5 4 4 5 4 4 4
3 4 5 7 5 5 4 4 5 5 5 4 3 3 3 3 2 2 1 1 2 2 1 2 2 2 2 2 2 2 2 3 3 3 3 3 4 3 4 4 3 4 3 3
5 6 7 6 4 6 6 6 6 5 5 4 3 3 2 2 2 2 1 2 2 1 1 1 2 2 2 1 2 1 2 3 3 3 3 3 3 3 3 3 3 2 3 3
Wind_Direction
200 226 224 227 261 296 284 270 264 85 86 267 269 259 175 175 192 188 185 181 185 187 176 172 175 175 170 167 166 172 177 170 179 185 200 197 201 214 223 230 227 250 260 249
204 221 234 250 246 249 252 255 245 184 150 278 283 271 190 178 200 201 198 191 190 187 179 178 180 181 181 178 181 181 183 181 190 185 199 211 223 224 225 251 233 258 260 251
226 175 183 223 226 238 244 264 274 267 232 229 262 234 190 174 188 197 205 201 195 192 188 183 185 187 186 186 189 189 185 187 196 196 200 194 194 220 210 224 225 265 274 265
226 204 209 229 235 251 246 270 270 257 257 256 262 278 180 181 186 195 198 197 197 192 190 187 186 191 194 191 188 189 187 191 195 198 207 208 212 221 227 238 221 242 269 267
203 203 217 231 241 253 284 287 256 258 262 268 242 272 193 184 208 202 199 198 197 194 191 187 188 188 195 191 190 186 186 192 196 201 203 214 224 230 229 218 197 250 226 259
230 206 237 241 234 229 204 217 222 238 250 252 256 268 255 201 235 212 195 198 197 193 192 190 186 182 190 193 192 186 184 193 196 200 204 212 223 231 240 241 243 233 230 244
215 207 204 217 213 191 221 240 238 230 228 243 220 259 275 300 249 232 205 194 191 189 188 187 185 183 187 191 193 191 186 192 196 201 207 210 215 217 224 241 228 254 269 270
218 209 197 209 233 229 229 253 265 274 273 251 203 250 265 163 204 211 197 181 181 183 186 185 184 184 186 189 192 194 191 192 194 198 202 209 213 219 216 226 255 246 267 287
232 218 177 202 225 246 230 240 271 273 270 271 250 245 215 193 197 193 182 173 176 179 183 185 182 183 186 189 192 193 192 190 191 191 191 199 207 222 227 227 238 246 249 258
248 240 200 188 207 215 260 256 246 258 267 267 253 244 239 197 202 190 177 168 160 166 173 175 178 183 186 188 189 190 189 188 189 189 194 191 199 206 214 229 232 250 252 264
244 241 211 200 219 218 203 219 241 258 265 271 270 260 72 190 193 200 179 161 160 168 170 174 179 183 185 183 182 182 185 187 190 194 196 203 203 203 208 217 222 227 242 244
226 245 234 218 214 260 244 240 235 245 248 257 275 272 99 125 161 194 187 160 158 169 171 176 179 177 182 181 177 176 185 189 189 190 195 200 204 207 213 213 217 225 237 245
205 237 230 212 200 200 225 233 241 251 253 253 259 248 130 144 174 204 215 174 158 172 168 166 171 177 181 179 175 174 183 185 180 180 193 199 208 207 212 216 217 223 231 243
232 241 247 250 249 218 220 227 234 245 249 251 256 270 231 232 252 234 201 190 182 179 182 171 170 178 181 180 175 178 179 175 177 181 190 197 209 209 212 215 216 220 227 238
234 241 245 258 258 254 246 239 235 241 256 267 270 268 277 277 268 258 216 199 197 190 194 183 176 174 181 179 176 179 180 180 182 184 190 194 198 199 204 208 213 219 229 235
233 253 248 245 244 246 250 243 239 242 248 255 263 266 289 279 264 244 228 214 212 206 201 188 178 179 185 184 182 180 185 183 183 186 188 188 194 197 202 207 213 221 231 237
222 238 248 247 239 246 243 237 236 237 242 254 260 278 310 275 275 265 253 229 221 216 207 196 185 185 187 189 185 182 182 182 179 180 182 187 190 194 204 215 216 225 234 237
233 238 246 250 238 244 252 255 247 248 251 257 269 288 289 296 280 268 260 243 220 213 206 200 195 182 182 191 187 181 176 181 184 186 190 194 199 202 203 211 221 237 247 249
233 231 242 245 243 249 228 203 229 243 242 244 256 267 271 265 237 213 173 256 239 226 217 210 205 188 175 179 179 178 181 184 191 192 194 199 206 210 210 217 227 237 241 242
203 219 239 238 250 254 239 118 242 249 234 197 274 270 254 237 256 79 45 305 273 251 217 196 178 163 161 167 184 188 185 189 197 201 201 202 207 211 214 221 231 236 238 240
196 208 230 239 245 250 46 67 216 237 248 29 334 300 265 258 310 357 341 315 286 236 194 175 165 163 159 175 189 195 188 197 205 209 208 206 206 210 214 222 227 234 234 237
234 230 226 238 244 240 71 195 259 346 4 335 321 302 282 285 314 301 293 276 256 215 183 181 174 168 170 193 199 196 191 198 200 207 211 213 217 224 210 219 229 231 236 232
240 281 279 268 291 28 335 315 335 321 307 306 303 300 277 260 265 265 256 235 232 230 204 196 189 187 196 214 215 202 194 196 195 203 213 219 220 228 229 228 229 231 231 245
202 279 265 263 260 296 289 300 310 308 306 301 292 281 258 254 263 266 254 234 230 219 209 209 204 197 209 223 222 204 199 196 198 207 215 226 229 229 229 239 237 241 242 249
264 238 250 256 270 280 267 296 310 310 308 298 283 270 263 249 248 250 256 259 257 254 248 240 234 228 227 217 208 206 192 197 209 217 225 235 239 242 245 245 263 261 263 270
238 246 253 262 282 286 290 296 298 297 307 308 285 263 250 236 216 210 222 250 251 253 274 269 254 240 230 210 202 214 207 209 223 231 240 248 250 244 247 244 242 234 245 224